TimeCST,TemperatureF,Dew PointF,Humidity,Sea Level PressureIn,VisibilityMPH,Wind Direction,Wind SpeedMPH,Gust SpeedMPH,PrecipitationIn,Events,Conditions,WindDirDegrees,DateUTC
12:54 AM,37.9,23.0,55,29.88,10.0,West,25.3,35.7,N/A,,Clear,260,2013-02-11 06:54:00
1:54 AM,37.0,21.9,54,29.91,10.0,West,17.3,28.8,N/A,,Partly Cloudy,280,2013-02-11 07:54:00
2:54 AM,37.4,24.8,60,29.92,10.0,WSW,17.3,-,N/A,,Mostly Cloudy,250,2013-02-11 08:54:00
3:54 AM,37.0,24.1,59,29.93,10.0,West,20.7,26.5,N/A,,Mostly Cloudy,260,2013-02-11 09:54:00
4:54 AM,36.0,25.0,64,29.94,10.0,West,18.4,27.6,N/A,,Clear,280,2013-02-11 10:54:00
5:54 AM,35.6,24.8,65,29.96,10.0,West,15.0,-,N/A,,Clear,280,2013-02-11 11:54:00
6:54 AM,35.1,24.1,64,30.01,10.0,West,13.8,23.0,N/A,,Clear,260,2013-02-11 12:54:00
7:54 AM,35.1,25.0,67,30.05,10.0,West,15.0,-,N/A,,Clear,260,2013-02-11 13:54:00
8:54 AM,37.0,23.0,57,30.07,10.0,WNW,19.6,29.9,N/A,,Clear,290,2013-02-11 14:54:00
9:54 AM,39.0,24.1,55,30.09,10.0,WNW,23.0,29.9,N/A,,Clear,290,2013-02-11 15:54:00
10:54 AM,42.1,24.1,49,30.11,10.0,WNW,17.3,-,N/A,,Clear,300,2013-02-11 16:54:00
11:54 AM,44.1,25.0,47,30.11,10.0,WNW,18.4,24.2,N/A,,Clear,290,2013-02-11 17:54:00
12:54 PM,46.0,25.0,44,30.10,10.0,West,15.0,24.2,N/A,,Clear,280,2013-02-11 18:54:00
1:54 PM,48.0,25.0,41,30.10,10.0,West,15.0,23.0,N/A,,Clear,270,2013-02-11 19:54:00
2:54 PM,48.0,25.0,41,30.09,10.0,WSW,18.4,25.3,N/A,,Clear,250,2013-02-11 20:54:00
3:54 PM,48.9,24.1,38,30.09,10.0,West,13.8,-,N/A,,Clear,270,2013-02-11 21:54:00
4:54 PM,46.9,21.9,37,30.09,10.0,West,11.5,-,N/A,,Clear,280,2013-02-11 22:54:00
5:54 PM,43.0,23.0,45,30.10,10.0,West,8.1,-,N/A,,Clear,270,2013-02-11 23:54:00
6:54 PM,42.1,23.0,47,30.12,10.0,West,4.6,-,N/A,,Clear,280,2013-02-12 00:54:00
7:54 PM,39.9,24.1,53,30.13,10.0,West,4.6,-,N/A,,Clear,270,2013-02-12 01:54:00
8:54 PM,37.9,23.0,55,30.14,10.0,West,5.8,-,N/A,,Clear,260,2013-02-12 02:54:00
9:54 PM,36.0,23.0,59,30.15,10.0,WSW,6.9,-,N/A,,Clear,240,2013-02-12 03:54:00
10:54 PM,37.0,23.0,57,30.15,10.0,West,4.6,-,N/A,,Clear,260,2013-02-12 04:54:00
11:54 PM,32.0,23.0,69,30.16,10.0,NW,4.6,-,N/A,,Clear,310,2013-02-12 05:54:00